Location: Bruderhein
(53.8035°N, 112.9265°W)
Time: 03:09:02
(UTC+00:00)

BEESAT - Pass Details

Date: 10 April 2023
Orbit: 696 x 706 km, 98.5° (Epoch: 31 May)

Event Time Altitude Azimuth Distance (km) Brightness Sun altitude
Rises 05:03:24 0° 15° (NNE) 3,112 ? -20.7°
Reaches altitude 10° 05:05:40 10° 15° (NNE) 2,187 ? -21.0°
Maximum altitude 05:10:28 86° 288° (WNW) 713 ? -21.4°
Enters shadow 05:12:37 33° 201° (SSW) 1,168 ? -21.6°
